CFG2LV EDDF-LEPA

Flight info

Callsign CFG2LV
Flight time 1h 45m
Altitude 35000
Route ANEKI2L ANEKI Y163 HERBI Y164 MOPAN DCT LUTIX/N0444F370 DCT BENOT DCT NEMOS DCT GEVEA DCT INCUS DCT BALSI DCT RETNO DCT TUPOX DCT MTG DCT DIVKO DCT VATIR DCT PIVUS N852 VERSO L129 LUNIK LUNI3P
Aircraft A321/M-SDE3FGHIRWY/LB1

Departure

Time 2026-04-18 08:10
Airport Frankfurt Main Airport (EDDF)

Arrival

Time 2026-04-18 09:56
Airport Palma de Mallorca Airport (LEPA)
Time Latitude Longitude Altitude Speed Heading
2026-04-18 07:47 50.03680 8.54057 343 ft 0 kts 160°
2026-04-18 08:05 50.03646 8.54077 349 ft 7 kts 160°
2026-04-18 08:06 50.03601 8.54067 341 ft 7 kts 220°
2026-04-18 08:06 50.03584 8.54007 337 ft 6 kts 251°
2026-04-18 08:06 50.03571 8.53952 339 ft 5 kts 250°
2026-04-18 08:06 50.03560 8.53903 339 ft 4 kts 249°
2026-04-18 08:07 50.03550 8.53863 340 ft 4 kts 249°
2026-04-18 08:07 50.03541 8.53826 337 ft 4 kts 249°
2026-04-18 08:07 50.03524 8.53759 338 ft 9 kts 249°
2026-04-18 08:07 50.03497 8.53644 337 ft 14 kts 250°
2026-04-18 08:08 50.03457 8.53479 336 ft 18 kts 249°
2026-04-18 08:08 50.03409 8.53269 337 ft 23 kts 249°
2026-04-18 08:08 50.03346 8.53011 332 ft 27 kts 250°
2026-04-18 08:08 50.03285 8.52754 333 ft 22 kts 250°
2026-04-18 08:09 50.03213 8.52605 333 ft 17 kts 205°
2026-04-18 08:09 50.03185 8.52596 333 ft 0 kts 182°
2026-04-18 08:09 50.03155 8.52595 334 ft 23 kts 181°
2026-04-18 08:10 50.02758 8.52600 336 ft 92 kts 179°
2026-04-18 08:10 50.01902 8.52610 335 ft 146 kts 179°
2026-04-18 08:10 50.00775 8.52619 373 ft 180 kts 179°
2026-04-18 08:10 49.99417 8.52634 1091 ft 171 kts 178°
2026-04-18 08:11 49.98347 8.52695 1612 ft 174 kts 178°
2026-04-18 08:11 49.97074 8.52795 1883 ft 194 kts 177°
2026-04-18 08:11 49.95568 8.52915 2074 ft 220 kts 177°
2026-04-18 08:11 49.94054 8.53034 2569 ft 232 kts 178°
2026-04-18 08:12 49.92445 8.53156 3434 ft 231 kts 178°
2026-04-18 08:12 49.90838 8.53274 4287 ft 231 kts 178°
2026-04-18 08:12 49.89228 8.53391 5150 ft 232 kts 178°
2026-04-18 08:12 49.87610 8.53503 5953 ft 234 kts 178°
2026-04-18 08:13 49.85975 8.53614 6709 ft 237 kts 178°
2026-04-18 08:13 49.84322 8.53727 7440 ft 239 kts 178°
2026-04-18 08:13 49.82647 8.53842 8166 ft 242 kts 178°
2026-04-18 08:13 49.80947 8.53957 8875 ft 245 kts 179°
2026-04-18 08:14 49.79234 8.54074 9614 ft 249 kts 179°
2026-04-18 08:14 49.77482 8.54072 10264 ft 255 kts 186°
2026-04-18 08:14 49.75643 8.53831 10485 ft 279 kts 186°
2026-04-18 08:14 49.73656 8.53559 10682 ft 302 kts 186°
2026-04-18 08:15 49.71495 8.53262 10976 ft 319 kts 186°
2026-04-18 08:15 49.69257 8.52957 11577 ft 326 kts 187°
2026-04-18 08:15 49.66983 8.52654 12256 ft 330 kts 187°
2026-04-18 08:15 49.64681 8.52354 12931 ft 335 kts 187°
2026-04-18 08:16 49.62339 8.52047 13584 ft 340 kts 187°
2026-04-18 08:16 49.59965 8.51736 14236 ft 345 kts 188°
2026-04-18 08:16 49.57579 8.51420 14839 ft 348 kts 188°
2026-04-18 08:16 49.55168 8.51099 15443 ft 352 kts 188°
2026-04-18 08:17 49.52718 8.50773 16050 ft 355 kts 188°
2026-04-18 08:17 49.50245 8.50448 16663 ft 359 kts 188°
2026-04-18 08:17 49.47751 8.50122 17285 ft 362 kts 188°
2026-04-18 08:17 49.45227 8.49794 17890 ft 365 kts 188°
2026-04-18 08:18 49.42681 8.49464 18486 ft 369 kts 188°
2026-04-18 08:18 49.40113 8.49133 18997 ft 372 kts 188°
2026-04-18 08:18 49.37518 8.48796 19526 ft 375 kts 188°
2026-04-18 08:18 49.34908 8.48454 20061 ft 378 kts 188°
2026-04-18 08:19 49.32317 8.48114 20587 ft 380 kts 188°
2026-04-18 08:19 49.29671 8.47768 21117 ft 383 kts 188°
2026-04-18 08:19 49.27010 8.47423 21643 ft 385 kts 188°
2026-04-18 08:19 49.24329 8.47076 22163 ft 388 kts 188°
2026-04-18 08:20 49.21634 8.46727 22677 ft 390 kts 188°
2026-04-18 08:20 49.18938 8.46377 23149 ft 393 kts 188°
2026-04-18 08:20 49.16189 8.46020 23563 ft 395 kts 188°
2026-04-18 08:20 49.13442 8.45667 23941 ft 397 kts 188°
2026-04-18 08:21 49.10678 8.45311 24291 ft 399 kts 188°
2026-04-18 08:21 49.07909 8.44954 24635 ft 401 kts 188°
2026-04-18 08:21 49.05156 8.44344 24968 ft 399 kts 196°
2026-04-18 08:21 49.02443 8.43390 25298 ft 401 kts 196°
2026-04-18 08:22 48.99719 8.42436 25632 ft 403 kts 196°
2026-04-18 08:22 48.96987 8.41482 25953 ft 404 kts 196°
2026-04-18 08:22 48.94235 8.40522 26283 ft 406 kts 196°
2026-04-18 08:22 48.91477 8.39565 26613 ft 408 kts 196°
2026-04-18 08:23 48.88737 8.38617 26938 ft 409 kts 196°
2026-04-18 08:23 48.85955 8.37655 27260 ft 411 kts 196°
2026-04-18 08:23 48.83161 8.36688 27581 ft 413 kts 196°
2026-04-18 08:23 48.80354 8.35717 27903 ft 415 kts 196°
2026-04-18 08:24 48.77484 8.34723 28217 ft 416 kts 197°
2026-04-18 08:24 48.74710 8.33730 28515 ft 418 kts 197°
2026-04-18 08:24 48.71880 8.32692 28795 ft 419 kts 197°
2026-04-18 08:24 48.69039 8.31641 29082 ft 421 kts 197°
2026-04-18 08:25 48.66190 8.30587 29363 ft 423 kts 197°
2026-04-18 08:25 48.63365 8.29548 29644 ft 424 kts 197°
2026-04-18 08:25 48.60453 8.28482 29932 ft 426 kts 197°
2026-04-18 08:25 48.57604 8.27443 30203 ft 427 kts 197°
2026-04-18 08:26 48.54707 8.26393 30436 ft 429 kts 197°
2026-04-18 08:26 48.51795 8.25341 30657 ft 431 kts 197°
2026-04-18 08:26 48.48875 8.24285 30890 ft 432 kts 197°
2026-04-18 08:26 48.45942 8.23219 31117 ft 433 kts 197°
2026-04-18 08:27 48.43016 8.22150 31338 ft 435 kts 197°
2026-04-18 08:27 48.40068 8.21070 31575 ft 436 kts 197°
2026-04-18 08:27 48.37128 8.19994 31880 ft 435 kts 197°
2026-04-18 08:27 48.34221 8.18933 32163 ft 434 kts 197°
2026-04-18 08:28 48.31255 8.17856 32475 ft 433 kts 197°
2026-04-18 08:28 48.28367 8.16809 32772 ft 433 kts 197°
2026-04-18 08:28 48.25454 8.15690 33065 ft 430 kts 201°
2026-04-18 08:28 48.22690 8.14031 33348 ft 425 kts 210°
2026-04-18 08:29 48.20044 8.12061 33629 ft 425 kts 210°
2026-04-18 08:29 48.17364 8.10068 33921 ft 424 kts 210°
2026-04-18 08:29 48.14756 8.08131 34183 ft 424 kts 210°
2026-04-18 08:29 48.12119 8.06180 34428 ft 423 kts 210°
2026-04-18 08:30 48.09480 8.04229 34653 ft 423 kts 210°
2026-04-18 08:30 48.06846 8.02288 34869 ft 422 kts 210°
2026-04-18 08:30 48.04246 8.00380 35085 ft 422 kts 210°
2026-04-18 08:30 48.01606 7.98446 35196 ft 422 kts 210°
2026-04-18 08:31 47.98972 7.96514 35216 ft 422 kts 210°
2026-04-18 08:31 47.93704 7.92659 35200 ft 421 kts 210°
2026-04-18 08:32 47.88438 7.88813 35211 ft 421 kts 210°
2026-04-18 08:32 47.83176 7.84977 35210 ft 421 kts 210°
2026-04-18 08:33 47.77950 7.81162 35213 ft 421 kts 210°
2026-04-18 08:33 47.72705 7.77345 35216 ft 425 kts 209°
2026-04-18 08:34 47.67367 7.73478 35218 ft 428 kts 209°
2026-04-18 08:34 47.62018 7.69617 35214 ft 428 kts 209°
2026-04-18 08:35 47.56668 7.65758 35218 ft 427 kts 209°
2026-04-18 08:35 47.51318 7.61908 35224 ft 428 kts 209°
2026-04-18 08:36 47.45999 7.58088 35221 ft 428 kts 209°
2026-04-18 08:36 47.40638 7.54241 35226 ft 428 kts 209°
2026-04-18 08:37 47.35277 7.50411 35218 ft 428 kts 209°
2026-04-18 08:37 47.29913 7.46593 35211 ft 428 kts 209°
2026-04-18 08:38 47.24509 7.42748 35219 ft 428 kts 209°
2026-04-18 08:38 47.19239 7.38951 35218 ft 426 kts 213°
2026-04-18 08:39 47.14670 7.33605 35459 ft 418 kts 231°
2026-04-18 08:39 47.13445 7.31427 35584 ft 417 kts 234°
2026-04-18 08:39 47.11039 7.26959 35843 ft 417 kts 234°
2026-04-18 08:39 47.09229 7.23617 36049 ft 417 kts 234°
2026-04-18 08:40 47.07418 7.20291 36248 ft 417 kts 233°
2026-04-18 08:40 47.05605 7.16973 36459 ft 417 kts 233°
2026-04-18 08:40 47.03790 7.13655 36651 ft 417 kts 233°
2026-04-18 08:40 47.01979 7.10346 36836 ft 416 kts 233°
2026-04-18 08:41 47.00192 7.07078 37019 ft 416 kts 233°
2026-04-18 08:41 46.98386 7.03770 37192 ft 416 kts 233°
2026-04-18 08:41 46.96574 7.00455 37242 ft 418 kts 233°
2026-04-18 08:42 46.92910 6.93776 37251 ft 426 kts 233°
2026-04-18 08:42 46.88640 6.87620 37250 ft 436 kts 221°
2026-04-18 08:43 46.83902 6.81992 37249 ft 442 kts 222°
2026-04-18 08:43 46.79154 6.76321 37242 ft 443 kts 222°
2026-04-18 08:44 46.74402 6.70664 37243 ft 439 kts 222°
2026-04-18 08:44 46.69668 6.65047 37241 ft 440 kts 221°
2026-04-18 08:45 46.64920 6.59434 37239 ft 440 kts 221°
2026-04-18 08:45 46.60168 6.53828 37240 ft 440 kts 221°
2026-04-18 08:46 46.55432 6.48266 37240 ft 440 kts 221°
2026-04-18 08:46 46.50669 6.42683 37249 ft 440 kts 221°
2026-04-18 08:47 46.45903 6.37105 37250 ft 440 kts 221°
2026-04-18 08:47 46.41158 6.31549 37246 ft 440 kts 221°
2026-04-18 08:48 46.36385 6.25977 37228 ft 439 kts 221°
2026-04-18 08:48 46.31646 6.20480 37238 ft 440 kts 221°
2026-04-18 08:49 46.26720 6.15235 37230 ft 443 kts 211°
2026-04-18 08:49 46.20900 6.12219 37232 ft 450 kts 192°
2026-04-18 08:50 46.14693 6.10852 37235 ft 452 kts 192°
2026-04-18 08:50 46.08479 6.09471 37230 ft 452 kts 192°
2026-04-18 08:51 46.02258 6.08095 37239 ft 452 kts 192°
2026-04-18 08:51 45.96039 6.06718 37224 ft 453 kts 192°
2026-04-18 08:52 45.89843 6.05344 37231 ft 453 kts 192°
2026-04-18 08:52 45.83630 6.03968 37232 ft 452 kts 192°
2026-04-18 08:53 45.77406 6.02598 37216 ft 452 kts 192°
2026-04-18 08:53 45.71184 6.01227 37226 ft 453 kts 192°
2026-04-18 08:54 45.64961 5.99853 37230 ft 453 kts 192°
2026-04-18 08:54 45.58729 5.98478 37223 ft 453 kts 192°
2026-04-18 08:55 45.52510 5.97119 37222 ft 453 kts 192°
2026-04-18 08:55 45.47320 5.95978 37221 ft 453 kts 193°
2026-04-18 08:56 45.41150 5.94239 37208 ft 452 kts 196°
2026-04-18 08:56 45.35028 5.92187 37210 ft 452 kts 196°
2026-04-18 08:57 45.25821 5.89191 37211 ft 453 kts 195°
2026-04-18 08:57 45.19661 5.87308 37207 ft 453 kts 195°
2026-04-18 08:58 45.13493 5.85425 37210 ft 453 kts 195°
2026-04-18 08:58 45.07331 5.83520 37208 ft 453 kts 195°
2026-04-18 08:59 45.01169 5.81614 37195 ft 453 kts 195°
2026-04-18 08:59 44.95001 5.79714 37194 ft 454 kts 195°
2026-04-18 09:00 44.88830 5.77811 37194 ft 454 kts 195°
2026-04-18 09:00 44.82658 5.75915 37180 ft 454 kts 195°
2026-04-18 09:01 44.76523 5.74041 37184 ft 455 kts 195°
2026-04-18 09:01 44.70339 5.72155 37183 ft 455 kts 195°
2026-04-18 09:02 44.64149 5.70261 37192 ft 455 kts 195°
2026-04-18 09:02 44.57967 5.68382 37189 ft 454 kts 195°
2026-04-18 09:03 44.51798 5.66518 37185 ft 454 kts 195°
2026-04-18 09:03 44.45627 5.64652 37167 ft 453 kts 195°
2026-04-18 09:04 44.39461 5.62796 37169 ft 453 kts 196°
2026-04-18 09:04 44.33588 5.59945 37168 ft 449 kts 204°
2026-04-18 09:05 44.27739 5.56722 37151 ft 450 kts 204°
2026-04-18 09:05 44.21861 5.53499 37147 ft 450 kts 204°
2026-04-18 09:06 44.16068 5.50346 37155 ft 450 kts 204°
2026-04-18 09:06 44.10228 5.47179 37171 ft 450 kts 204°
2026-04-18 09:07 44.04367 5.43995 37157 ft 451 kts 204°
2026-04-18 09:07 43.98529 5.40828 37149 ft 446 kts 204°
2026-04-18 09:08 43.92702 5.37668 37140 ft 451 kts 204°
2026-04-18 09:08 43.86850 5.34498 37147 ft 452 kts 204°
2026-04-18 09:09 43.80943 5.31314 37134 ft 452 kts 204°
2026-04-18 09:09 43.75088 5.28161 37136 ft 451 kts 204°
2026-04-18 09:10 43.69275 5.25036 37138 ft 452 kts 204°
2026-04-18 09:10 43.63412 5.21890 37144 ft 452 kts 204°
2026-04-18 09:11 43.57538 5.18761 37150 ft 453 kts 204°
2026-04-18 09:11 43.51662 5.15626 37151 ft 452 kts 204°
2026-04-18 09:12 43.45793 5.12499 37143 ft 452 kts 204°
2026-04-18 09:12 43.39975 5.09367 37141 ft 451 kts 207°
2026-04-18 09:13 43.34645 5.04933 37145 ft 448 kts 217°
2026-04-18 09:13 43.29509 5.00082 37139 ft 448 kts 217°
2026-04-18 09:14 43.24363 4.95234 37139 ft 449 kts 217°
2026-04-18 09:14 43.19181 4.90367 37151 ft 448 kts 217°
2026-04-18 09:15 43.14026 4.85554 37161 ft 448 kts 217°
2026-04-18 09:15 43.08907 4.80779 37150 ft 448 kts 217°
2026-04-18 09:16 43.03645 4.76188 37156 ft 450 kts 212°
2026-04-18 09:16 42.98171 4.72026 37161 ft 450 kts 211°
2026-04-18 09:17 42.92686 4.67877 37164 ft 451 kts 211°
2026-04-18 09:17 42.87196 4.63732 37159 ft 451 kts 211°
2026-04-18 09:18 42.81739 4.59613 37162 ft 452 kts 211°
2026-04-18 09:18 42.76241 4.55471 37174 ft 451 kts 211°
2026-04-18 09:19 42.70740 4.51347 37183 ft 451 kts 211°
2026-04-18 09:19 42.65250 4.47237 37181 ft 451 kts 211°
2026-04-18 09:20 42.59795 4.43150 37179 ft 450 kts 211°
2026-04-18 09:20 42.54310 4.39048 37182 ft 450 kts 211°
2026-04-18 09:21 42.48822 4.34956 37171 ft 450 kts 211°
2026-04-18 09:21 42.43335 4.30871 37175 ft 450 kts 211°
2026-04-18 09:22 42.37839 4.26791 37179 ft 451 kts 211°
2026-04-18 09:22 42.32343 4.22719 37173 ft 451 kts 211°
2026-04-18 09:23 42.26877 4.18677 37169 ft 451 kts 211°
2026-04-18 09:23 42.21373 4.14623 37177 ft 450 kts 211°
2026-04-18 09:24 42.15877 4.10576 37180 ft 450 kts 211°
2026-04-18 09:24 42.10383 4.06535 37178 ft 450 kts 211°
2026-04-18 09:25 42.04884 4.02502 37178 ft 450 kts 211°
2026-04-18 09:25 41.99384 3.98478 37179 ft 450 kts 211°
2026-04-18 09:26 41.93890 3.94565 37180 ft 452 kts 206°
2026-04-18 09:26 41.87812 3.92301 37170 ft 457 kts 192°
2026-04-18 09:27 41.81537 3.90859 37173 ft 458 kts 192°
2026-04-18 09:27 41.75260 3.89406 37178 ft 458 kts 192°
2026-04-18 09:28 41.69014 3.87971 37179 ft 459 kts 192°
2026-04-18 09:28 41.62722 3.86532 37181 ft 459 kts 192°
2026-04-18 09:29 41.56425 3.85089 37185 ft 459 kts 192°
2026-04-18 09:29 41.50125 3.83637 37190 ft 459 kts 192°
2026-04-18 09:30 41.43821 3.82192 37181 ft 460 kts 192°
2026-04-18 09:30 41.37551 3.80760 37189 ft 460 kts 192°
2026-04-18 09:31 41.31233 3.79321 37194 ft 460 kts 192°
2026-04-18 09:31 41.24920 3.77882 37199 ft 460 kts 192°
2026-04-18 09:32 41.18610 3.76451 37201 ft 460 kts 192°
2026-04-18 09:32 41.12477 3.74263 37201 ft 455 kts 204°
2026-04-18 09:33 41.06609 3.71213 36889 ft 449 kts 204°
2026-04-18 09:33 41.00756 3.68201 36945 ft 453 kts 204°
2026-04-18 09:34 40.97811 3.66687 36778 ft 454 kts 204°
2026-04-18 09:34 40.94870 3.65178 36516 ft 454 kts 204°
2026-04-18 09:34 40.91930 3.63669 36263 ft 454 kts 204°
2026-04-18 09:34 40.88987 3.62157 36010 ft 454 kts 204°
2026-04-18 09:35 40.86043 3.60648 35665 ft 454 kts 204°
2026-04-18 09:35 40.83092 3.59141 34904 ft 456 kts 204°
2026-04-18 09:35 40.80126 3.57628 34094 ft 459 kts 204°
2026-04-18 09:35 40.77175 3.56120 33182 ft 462 kts 204°
2026-04-18 09:36 40.74172 3.54582 32299 ft 464 kts 204°
2026-04-18 09:36 40.71148 3.53036 31384 ft 468 kts 203°
2026-04-18 09:36 40.68123 3.51497 30822 ft 463 kts 203°
2026-04-18 09:36 40.65156 3.49994 30321 ft 452 kts 203°
2026-04-18 09:37 40.62246 3.48519 29472 ft 445 kts 203°
2026-04-18 09:37 40.59393 3.47074 28333 ft 437 kts 203°
2026-04-18 09:37 40.56546 3.45625 27599 ft 437 kts 203°
2026-04-18 09:37 40.53726 3.44190 27045 ft 433 kts 203°
2026-04-18 09:38 40.50932 3.42771 26462 ft 429 kts 203°
2026-04-18 09:38 40.48150 3.41364 25887 ft 427 kts 202°
2026-04-18 09:38 40.45362 3.40056 25317 ft 425 kts 196°
2026-04-18 09:38 40.42455 3.39427 24756 ft 424 kts 184°
2026-04-18 09:39 40.39558 3.39498 24203 ft 422 kts 178°
2026-04-18 09:39 40.36632 3.39674 23631 ft 419 kts 178°
2026-04-18 09:39 40.33735 3.39843 22997 ft 417 kts 178°
2026-04-18 09:39 40.30842 3.40006 22381 ft 414 kts 178°
2026-04-18 09:40 40.27976 3.40166 21780 ft 411 kts 178°
2026-04-18 09:40 40.25141 3.40325 21194 ft 408 kts 178°
2026-04-18 09:40 40.22307 3.40481 20623 ft 405 kts 178°
2026-04-18 09:40 40.19497 3.40639 20064 ft 403 kts 178°
2026-04-18 09:41 40.16705 3.40799 19517 ft 401 kts 177°
2026-04-18 09:41 40.13928 3.40958 18994 ft 398 kts 177°
2026-04-18 09:41 40.11168 3.41115 18478 ft 396 kts 177°
2026-04-18 09:41 40.08459 3.41268 17911 ft 394 kts 177°
2026-04-18 09:42 40.05750 3.41419 17681 ft 383 kts 177°
2026-04-18 09:42 40.03131 3.41565 17539 ft 370 kts 177°
2026-04-18 09:42 40.00600 3.41708 17409 ft 358 kts 177°
2026-04-18 09:42 39.98149 3.41843 17163 ft 349 kts 177°
2026-04-18 09:43 39.95733 3.41974 16803 ft 346 kts 177°
2026-04-18 09:43 39.93336 3.42107 16417 ft 344 kts 176°
2026-04-18 09:43 39.90957 3.42245 16024 ft 342 kts 176°
2026-04-18 09:43 39.88586 3.42383 15635 ft 340 kts 176°
2026-04-18 09:44 39.86228 3.42522 15247 ft 338 kts 176°
2026-04-18 09:44 39.83911 3.42657 14870 ft 337 kts 176°
2026-04-18 09:44 39.81573 3.42789 14496 ft 336 kts 176°
2026-04-18 09:44 39.79246 3.42918 14132 ft 334 kts 176°
2026-04-18 09:45 39.76926 3.43044 13739 ft 333 kts 176°
2026-04-18 09:45 39.74617 3.43094 13334 ft 331 kts 186°
2026-04-18 09:45 39.72454 3.42193 12977 ft 327 kts 213°
2026-04-18 09:45 39.70833 3.40204 12604 ft 319 kts 240°
2026-04-18 09:46 39.70047 3.37571 12182 ft 310 kts 266°
2026-04-18 09:46 39.70037 3.34857 11860 ft 289 kts 276°
2026-04-18 09:46 39.70123 3.32321 11316 ft 276 kts 276°
2026-04-18 09:46 39.70202 3.29885 10742 ft 267 kts 276°
2026-04-18 09:47 39.70281 3.27490 10066 ft 263 kts 276°
2026-04-18 09:47 39.70356 3.25130 9344 ft 260 kts 276°
2026-04-18 09:47 39.70428 3.22819 8648 ft 257 kts 276°
2026-04-18 09:47 39.70499 3.20498 7966 ft 253 kts 276°
2026-04-18 09:48 39.70568 3.18235 7398 ft 247 kts 275°
2026-04-18 09:48 39.70631 3.16071 7022 ft 233 kts 275°
2026-04-18 09:48 39.70690 3.14034 6710 ft 220 kts 275°
2026-04-18 09:48 39.70745 3.12102 6356 ft 211 kts 275°
2026-04-18 09:49 39.70795 3.10202 5980 ft 207 kts 274°
2026-04-18 09:49 39.70556 3.08358 5629 ft 207 kts 254°
2026-04-18 09:49 39.69891 3.06708 5336 ft 202 kts 241°
2026-04-18 09:49 39.69166 3.05161 5056 ft 200 kts 241°
2026-04-18 09:50 39.68449 3.03627 4804 ft 198 kts 240°
2026-04-18 09:50 39.67739 3.02108 4534 ft 196 kts 240°
2026-04-18 09:50 39.67057 3.00654 4277 ft 187 kts 240°
2026-04-18 09:50 39.66387 2.99223 4031 ft 184 kts 240°
2026-04-18 09:51 39.65721 2.97803 3793 ft 183 kts 240°
2026-04-18 09:51 39.65060 2.96395 3546 ft 182 kts 240°
2026-04-18 09:51 39.64403 2.94993 3317 ft 182 kts 240°
2026-04-18 09:51 39.63747 2.93598 3077 ft 181 kts 240°
2026-04-18 09:52 39.63112 2.92245 2832 ft 166 kts 240°
2026-04-18 09:52 39.62537 2.91023 2619 ft 153 kts 239°
2026-04-18 09:52 39.61998 2.89877 2420 ft 149 kts 239°
2026-04-18 09:52 39.61465 2.88742 2232 ft 146 kts 240°
2026-04-18 09:53 39.60938 2.87621 2041 ft 145 kts 240°
2026-04-18 09:53 39.60414 2.86507 1851 ft 144 kts 240°
2026-04-18 09:53 39.60068 2.85774 1719 ft 144 kts 239°
2026-04-18 09:53 39.59559 2.84693 1517 ft 133 kts 239°
2026-04-18 09:54 39.59086 2.83689 1351 ft 128 kts 239°
2026-04-18 09:54 39.58628 2.82716 1190 ft 125 kts 239°
2026-04-18 09:54 39.58176 2.81758 1031 ft 124 kts 238°
2026-04-18 09:54 39.57718 2.80786 869 ft 123 kts 238°
2026-04-18 09:55 39.57268 2.79832 696 ft 122 kts 238°
2026-04-18 09:55 39.56821 2.78884 541 ft 121 kts 238°
2026-04-18 09:55 39.56383 2.77956 388 ft 122 kts 238°
2026-04-18 09:55 39.55925 2.76986 227 ft 126 kts 238°
2026-04-18 09:56 39.55460 2.75999 70 ft 124 kts 238°
2026-04-18 09:56 39.55066 2.75159 38 ft 75 kts 239°
2026-04-18 09:56 39.54877 2.74757 38 ft 46 kts 238°
2026-04-18 09:56 39.54805 2.74394 38 ft 25 kts 271°
2026-04-18 09:57 39.54803 2.74275 38 ft 0 kts 267°
2026-04-18 09:58 39.54802 2.74249 38 ft 4 kts 268°
2026-04-18 09:58 39.54803 2.74214 38 ft 4 kts 276°
2026-04-18 09:58 39.54808 2.74179 38 ft 4 kts 284°
2026-04-18 09:58 39.54847 2.74111 38 ft 16 kts 317°
2026-04-18 09:59 39.54940 2.74019 38 ft 13 kts 287°
2026-04-18 09:59 39.54932 2.73945 38 ft 4 kts 288°
2026-04-18 09:59 39.54937 2.73915 38 ft 3 kts 269°
2026-04-18 10:00 39.54924 2.73877 38 ft 2 kts 248°
2026-04-18 10:00 39.54912 2.73835 38 ft 9 kts 250°
2026-04-18 10:00 39.54906 2.73816 37 ft 0 kts 249°
2026-04-18 10:00 39.54905 2.73812 38 ft 0 kts 249°